| time (UTC) | temp F | wind direction | speed knots | gust knots | rain 1hr in | rain 24hr in | rain mn in | humidity % | barometer mb |
| 20260505173349 | 83 | 138 | 1.7 | 10.4 | 0.08 | 0.61 | 0.39 | 29 | 1008.5 |
| 20260505173051 | 83 | 360 | 3.5 | 10.4 | 0.10 | 0.61 | 0.39 | 30 | 1008.0 |
| 20260505172843 | 83 | 184 | 2.6 | 9.6 | 0.11 | 0.61 | 0.39 | 29 | 1008.6 |
| 20260505171541 | 82 | 47 | 0.9 | 7.8 | 0.16 | 0.61 | 0.39 | 31 | 1008.3 |
| 20260505170024 | 80 | 331 | 4.3 | 13.0 | 0.18 | 0.60 | 0.38 | 31 | 1008.6 |
| 20260505164523 | 80 | 52 | 3.5 | 9.6 | 0.14 | 0.57 | 0.33 | 31 | 1008.8 |
| 20260505163022 | 78 | 128 | 2.6 | 8.7 | 0.09 | 0.53 | 0.28 | 33 | 1009.2 |
| 20260505161521 | 79 | 225 | 2.6 | 9.6 | 0.04 | 0.48 | 0.23 | 33 | 1009.1 |
| 20260505153017 | 80 | 98 | 2.6 | 10.4 | 0.12 | 0.48 | 0.19 | 36 | 1009.6 |
| 20260505151513 | 78 | 65 | 2.6 | 9.6 | 0.12 | 0.48 | 0.19 | 38 | 1009.6 |
| 20260505140357 | 74 | 235 | 3.5 | 8.7 | 0.05 | 0.36 | 0.05 | 43 | 1009.7 |
| 20260505124543 | 65 | 157 | 2.6 | 5.2 | 0.00 | 0.31 | 0.00 | 64 | 1010.0 |
| 20260505123039 | 61 | 94 | 0.0 | 2.6 | 0.00 | 0.31 | 0.00 | 76 | 1010.2 |
| 20260505121539 | 59 | 174 | 0.9 | 3.5 | 0.00 | 0.31 | 0.00 | 76 | 1010.4 |
| 20260505120057 | 56 | 355 | 0.9 | 2.6 | 0.00 | 0.31 | 0.00 | 83 | 1010.4 |
| 20260505114529 | 52 | 69 | 0.0 | 1.7 | 0.00 | 0.31 | 0.00 | 93 | 1010.7 |
| 20260505113028 | 50 | 65 | 0.0 | 0.9 | 0.00 | 0.31 | 0.00 | 94 | 1010.6 |
| 20260505111527 | 49 | 65 | 0.0 | 0.0 | 0.00 | 0.31 | 0.00 | 95 | 1010.4 |
| 20260505101522 | 48 | 65 | 0.0 | 0.0 | 0.00 | 0.31 | 0.00 | 95 | 1009.7 |
| 20260505100022 | 48 | 65 | 0.0 | 0.0 | 0.00 | 0.31 | 0.00 | 95 | 1009.6 |
| 20260505094516 | 48 | 65 | 0.0 | 0.0 | 0.00 | 0.31 | 0.00 | 94 | 1009.6 |
| 20260505093014 | 47 | 65 | 0.0 | 1.7 | 0.00 | 0.31 | 0.00 | 94 | 1009.6 |
| 20260505091523 | 48 | 65 | 0.0 | 0.0 | 0.00 | 0.31 | 0.00 | 94 | 1009.4 |
| 20260505090026 | 48 | 65 | 0.0 | 0.0 | 0.00 | 0.31 | 0.00 | 94 | 1009.3 |
| 20260505084510 | 48 | 65 | 0.0 | 1.7 | 0.00 | 0.31 | 0.00 | 93 | 1009.3 |
| 20260505083009 | 48 | 65 | 0.0 | 0.0 | 0.00 | 0.31 | 0.00 | 93 | 1009.4 |
| 20260505081512 | 48 | 65 | 0.0 | 0.0 | 0.00 | 0.31 | 0.00 | 93 | 1009.3 |
| 20260505080007 | 48 | 65 | 0.0 | 0.0 | 2.25 | 0.00 | 0.00 | 94 | 1009.3 |
| 20260505074506 | 47 | 65 | 0.0 | 0.0 | 0.00 | 0.31 | 0.00 | 94 | 1009.2 |
| 20260505073004 | 47 | 65 | 0.0 | 0.0 | 0.00 | 0.31 | 0.00 | 94 | 1009.0 |
| 20260505071511 | 48 | 65 | 0.0 | 0.0 | 0.00 | 0.31 | 0.00 | 93 | 1008.8 |
| 20260505070002 | 48 | 65 | 0.0 | 0.9 | 0.00 | 0.31 | 0.00 | 93 | 1008.9 |
| 20260505064559 | 48 | 65 | 0.0 | 0.0 | 0.00 | 0.31 | 0.00 | 92 | 1009.1 |
| 20260505063058 | 48 | 65 | 0.0 | 1.7 | 0.00 | 0.31 | 0.00 | 92 | 1009.1 |
| 20260505061558 | 49 | 65 | 0.0 | 0.0 | 0.00 | 0.31 | 0.00 | 91 | 1009.1 |
| 20260505060054 | 49 | 65 | 0.0 | 0.0 | 0.00 | 0.31 | 0.00 | 91 | 1009.1 |
| 20260505054616 | 50 | 65 | 0.0 | 0.0 | 0.00 | 0.31 | 0.00 | 90 | 1009.1 |
| 20260505053101 | 50 | 65 | 0.0 | 0.0 | 0.00 | 0.31 | 0.00 | 89 | 1009.1 |
| 20260505051548 | 50 | 65 | 0.0 | 0.0 | 0.00 | 0.31 | 0.00 | 89 | 1009.1 |
| 20260505041559 | 52 | 65 | 0.0 | 0.9 | 0.00 | 0.31 | 0.00 | 86 | 1009.1 |
| 20260505041353 | 53 | 65 | 0.0 | 0.9 | 0.00 | 0.31 | 0.00 | 86 | 1009.5 |
| 20260505040905 | 53 | 65 | 0.0 | 0.0 | 0.00 | 0.31 | 0.00 | 85 | 1009.5 |
| 20260505040358 | 53 | 65 | 0.0 | 0.0 | 0.00 | 0.31 | 0.00 | 84 | 1009.5 |
| 20260505040008 | 53 | 65 | 0.0 | 0.0 | 0.00 | 0.31 | 0.00 | 84 | 1009.2 |
| 20260505035908 | 54 | 65 | 0.0 | 0.0 | 0.00 | 0.31 | 0.31 | 84 | 1009.5 |
| 20260505035359 | 54 | 65 | 0.0 | 0.9 | 0.00 | 0.31 | 0.31 | 83 | 1009.5 |
| 20260505034852 | 54 | 65 | 0.0 | 0.9 | 0.00 | 0.31 | 0.31 | 84 | 1009.5 |
| 20260505034546 | 53 | 65 | 0.0 | 0.9 | 0.00 | 0.31 | 0.31 | 84 | 1009.3 |
| 20260505034344 | 54 | 64 | 0.0 | 0.0 | 0.00 | 0.31 | 0.31 | 84 | 1009.6 |
| 20260505033837 | 54 | 64 | 0.0 | 0.0 | 0.00 | 0.31 | 0.31 | 83 | 1009.5 |
| 20260505033349 | 54 | 64 | 0.0 | 0.0 | 0.00 | 0.31 | 0.31 | 82 | 1009.5 |
| 20260505033143 | 54 | 64 | 0.0 | 0.0 | 0.00 | 0.31 | 0.31 | 82 | 1009.3 |
| 20260505032842 | 55 | 64 | 0.0 | 0.0 | 0.00 | 0.31 | 0.31 | 81 | 1009.5 |
| 20260505032415 | 55 | 64 | 0.0 | 0.0 | 0.00 | 0.31 | 0.31 | 81 | 1009.6 |
| 20260505031846 | 55 | 64 | 0.0 | 0.0 | 0.00 | 0.31 | 0.31 | 81 | 1009.6 |
| 20260505031610 | 55 | 64 | 0.0 | 0.0 | 0.00 | 0.31 | 0.31 | 81 | 1009.3 |
| 20260505031359 | 55 | 64 | 0.0 | 0.0 | 0.00 | 0.00 | 0.31 | 80 | 1009.4 |
| 20260505030909 | 56 | 64 | 0.0 | 0.0 | 0.00 | 0.31 | 0.31 | 80 | 1009.6 |
| 20260505030442 | 56 | 63 | 0.0 | 0.0 | 0.00 | 0.31 | 0.31 | 79 | 1009.6 |
| 20260505030047 | 55 | 64 | 0.0 | 0.0 | 0.00 | 0.31 | 0.31 | 79 | 1009.3 |
| 20260505025847 | 56 | 64 | 0.0 | 0.0 | 0.00 | 0.31 | 0.31 | 79 | 1009.6 |
| 20260505025340 | 56 | 64 | 0.0 | 0.0 | 0.00 | 0.31 | 0.31 | 79 | 1009.6 |
| 20260505024912 | 57 | 64 | 0.0 | 0.0 | 0.00 | 0.31 | 0.31 | 78 | 1009.6 |
| 20260505024545 | 56 | 64 | 0.0 | 0.0 | 0.00 | 0.31 | 0.31 | 77 | 1009.3 |
| 20260505024345 | 57 | 64 | 0.0 | 0.0 | 0.00 | 0.31 | 0.31 | 76 | 1009.6 |
| 20260505023838 | 57 | 64 | 0.0 | 0.0 | 0.00 | 0.31 | 0.31 | 77 | 1009.7 |
| 20260505023412 | 58 | 64 | 0.0 | 0.0 | 0.00 | 0.31 | 0.31 | 76 | 1009.8 |
| 20260505023047 | 57 | 64 | 0.0 | 0.0 | 0.00 | 0.31 | 0.31 | 74 | 1009.5 |
| 20260505022843 | 58 | 64 | 0.0 | 0.0 | 0.00 | 0.31 | 0.31 | 74 | 1009.8 |
| 20260505022416 | 58 | 64 | 0.0 | 0.0 | 0.00 | 0.31 | 0.31 | 73 | 1009.7 |
| 20260505021848 | 58 | 64 | 0.0 | 0.0 | 0.00 | 0.31 | 0.31 | 73 | 1009.7 |
| 20260505021542 | 58 | 64 | 0.0 | 0.0 | 0.00 | 0.31 | 0.31 | 73 | 1009.4 |
| 20260505021342 | 59 | 64 | 0.0 | 0.0 | 0.00 | 0.31 | 0.31 | 73 | 1009.7 |
| 20260505020855 | 59 | 64 | 0.0 | 0.0 | 0.00 | 0.31 | 0.31 | 73 | 1009.6 |
| 20260505020348 | 59 | 64 | 0.0 | 0.0 | 0.00 | 0.31 | 0.31 | 71 | 1009.6 |
| 20260505020037 | 59 | 64 | 0.0 | 0.0 | 0.00 | 0.31 | 0.31 | 70 | 1009.4 |
| 20260505015837 | 59 | 64 | 0.0 | 0.0 | 0.00 | 0.31 | 0.31 | 70 | 1009.6 |
| 20260505015350 | 60 | 64 | 0.0 | 0.0 | 0.00 | 0.31 | 0.31 | 69 | 1009.6 |
| 20260505014842 | 60 | 64 | 0.0 | 0.0 | 0.00 | 0.31 | 0.31 | 68 | 1009.5 |
| 20260505014604 | 60 | 64 | 0.0 | 0.0 | 0.00 | 0.31 | 0.31 | 68 | 1009.2 |
| 20260505014355 | 61 | 64 | 0.0 | 0.0 | 0.00 | 0.31 | 0.31 | 68 | 1009.4 |
| 20260505013847 | 61 | 64 | 0.0 | 0.0 | 0.00 | 0.31 | 0.31 | 68 | 1009.4 |
| 20260505013339 | 61 | 64 | 0.0 | 0.0 | 0.00 | 0.31 | 0.31 | 68 | 1009.3 |
| 20260505013033 | 61 | 64 | 0.0 | 0.0 | 0.00 | 0.31 | 0.31 | 69 | 1009.0 |
| 20260505012932 | 61 | 64 | 0.0 | 0.0 | 0.00 | 0.31 | 0.31 | 69 | 1009.2 |
| 20260505012341 | 62 | 64 | 0.0 | 0.0 | 0.00 | 0.31 | 0.31 | 69 | 1009.1 |
| 20260505011913 | 63 | 64 | 0.0 | 0.0 | 0.00 | 0.31 | 0.31 | 67 | 1009.1 |
| 20260505011608 | 62 | 64 | 0.0 | 0.0 | 0.00 | 0.31 | 0.31 | 66 | 1008.8 |
| 20260505011504 | 63 | 64 | 0.0 | 0.0 | 0.00 | 0.31 | 0.31 | 65 | 1009.0 |
| 20260505010848 | 63 | 64 | 0.0 | 0.0 | 0.00 | 0.31 | 0.31 | 61 | 1008.9 |
| 20260505010341 | 64 | 64 | 0.0 | 0.0 | 0.00 | 0.31 | 0.31 | 61 | 1008.8 |
| 20260505010051 | 64 | 64 | 0.0 | 0.0 | 0.00 | 0.31 | 0.31 | 60 | 1008.5 |
| 20260505005850 | 64 | 64 | 0.0 | 0.0 | 0.00 | 0.31 | 0.31 | 59 | 1008.7 |
| 20260505005343 | 65 | 64 | 0.0 | 0.0 | 0.00 | 0.31 | 0.31 | 61 | 1008.6 |
| 20260505004837 | 65 | 64 | 0.0 | 0.0 | 0.00 | 0.31 | 0.31 | 60 | 1008.5 |
| 20260505004555 | 65 | 64 | 0.0 | 0.0 | 0.00 | 0.31 | 0.31 | 60 | 1008.3 |
| 20260505004350 | 65 | 64 | 0.0 | 0.0 | 0.00 | 0.31 | 0.31 | 59 | 1008.4 |
| 20260505003923 | 66 | 64 | 0.0 | 0.9 | 0.00 | 0.31 | 0.31 | 59 | 1008.4 |
| 20260505003411 | 66 | 64 | 0.0 | 0.9 | 0.00 | 0.31 | 0.31 | 58 | 1008.4 |
| 20260505003001 | 66 | 63 | 0.0 | 0.0 | 0.00 | 0.31 | 0.31 | 57 | 1008.0 |
| 20260505002901 | 67 | 63 | 0.0 | 0.0 | 0.00 | 0.31 | 0.31 | 57 | 1008.3 |
| 20260505002354 | 67 | 63 | 0.0 | 0.9 | 0.00 | 0.31 | 0.31 | 59 | 1008.4 |
| 20260505001846 | 67 | 63 | 0.0 | 0.9 | 0.00 | 0.31 | 0.31 | 60 | 1008.3 |
| 20260505001540 | 67 | 63 | 0.0 | 0.9 | 0.00 | 0.31 | 0.31 | 56 | 1008.0 |
| 20260505001339 | 68 | 63 | 0.0 | 0.9 | 0.00 | 0.31 | 0.31 | 58 | 1008.2 |
| 20260505000849 | 68 | 63 | 0.0 | 0.9 | 0.00 | 0.31 | 0.31 | 53 | 1008.1 |
| 20260505000343 | 69 | 63 | 0.0 | 1.7 | 0.00 | 0.31 | 0.31 | 53 | 1008.1 |
| 20260505000018 | 69 | 63 | 0.0 | 1.7 | 0.00 | 0.31 | 0.31 | 52 | 1007.9 |
| 20260504235910 | 69 | 63 | 0.0 | 1.7 | 0.00 | 0.31 | 0.31 | 51 | 1008.1 |
| 20260504235341 | 70 | 63 | 0.0 | 1.7 | 0.00 | 0.31 | 0.31 | 48 | 1007.9 |
| 20260504234855 | 70 | 65 | 0.0 | 1.7 | 0.00 | 0.31 | 0.31 | 51 | 1007.9 |
| 20260504234549 | 71 | 65 | 0.0 | 3.5 | 0.00 | 0.31 | 0.31 | 49 | 1007.7 |
| 20260504234348 | 71 | 63 | 0.0 | 3.5 | 0.00 | 0.31 | 0.31 | 47 | 1007.9 |
| 20260504233841 | 72 | 153 | 0.9 | 2.6 | 0.00 | 0.31 | 0.31 | 48 | 1007.8 |
| 20260504233354 | 72 | 81 | 0.9 | 2.6 | 0.00 | 0.31 | 0.31 | 46 | 1007.8 |
| 20260504233027 | 72 | 138 | 0.0 | 2.6 | 0.00 | 0.31 | 0.31 | 45 | 1007.6 |
| 20260504232926 | 72 | 95 | 0.0 | 2.6 | 0.00 | 0.31 | 0.31 | 45 | 1007.8 |
| 20260504232434 | 72 | 71 | 0.0 | 2.6 | 0.00 | 0.31 | 0.31 | 45 | 1007.7 |
| 20260504231841 | 72 | 192 | 0.9 | 2.6 | 0.00 | 0.31 | 0.31 | 49 | 1007.7 |
| 20260504231555 | 72 | 94 | 0.0 | 2.6 | 0.00 | 0.31 | 0.31 | 49 | 1007.5 |
| 20260504231355 | 73 | 94 | 0.0 | 2.6 | 0.00 | 0.31 | 0.31 | 45 | 1007.7 |
| 20260504230907 | 73 | 136 | 0.9 | 2.6 | 0.00 | 0.31 | 0.31 | 43 | 1007.7 |
| 20260504230340 | 73 | 94 | 0.9 | 3.5 | 0.00 | 0.31 | 0.31 | 44 | 1007.7 |
| 20260504225849 | 74 | 94 | 0.0 | 3.5 | 0.00 | 0.34 | 0.31 | 42 | 1007.6 |
| 20260504225342 | 74 | 96 | 0.9 | 1.7 | 0.00 | 0.34 | 0.31 | 40 | 1007.6 |
| 20260504224855 | 74 | 96 | 0.9 | 1.7 | 0.00 | 0.34 | 0.31 | 42 | 1007.6 |
| 20260504224508 | 73 | 97 | 0.0 | 0.9 | 0.01 | 0.34 | 0.31 | 42 | 1007.5 |
| 20260504224406 | 74 | 97 | 0.0 | 1.7 | 0.01 | 0.34 | 0.31 | 46 | 1007.7 |
| 20260504223838 | 75 | 102 | 0.0 | 3.5 | 0.02 | 0.34 | 0.31 | 40 | 1007.7 |
| 20260504223351 | 75 | 216 | 1.7 | 3.5 | 0.02 | 0.34 | 0.31 | 39 | 1007.7 |
| 20260504223049 | 74 | 130 | 0.9 | 5.2 | 0.02 | 0.34 | 0.31 | 39 | 1007.5 |
| 20260504222849 | 75 | 190 | 1.7 | 5.2 | 0.02 | 0.34 | 0.31 | 39 | 1007.7 |
| 20260504222400 | 74 | 212 | 3.5 | 6.1 | 0.02 | 0.34 | 0.31 | 42 | 1007.6 |
| 20260504221852 | 75 | 86 | 0.9 | 6.1 | 0.02 | 0.34 | 0.31 | 39 | 1007.6 |
| 20260504221557 | 74 | 295 | 0.9 | 6.1 | 0.02 | 0.34 | 0.31 | 39 | 1007.5 |
| 20260504221346 | 75 | 99 | 1.7 | 6.1 | 0.02 | 0.34 | 0.31 | 39 | 1007.7 |
| 20260504220839 | 75 | 114 | 0.9 | 5.2 | 0.02 | 0.34 | 0.31 | 39 | 1007.6 |
| 20260504220353 | 75 | 124 | 0.9 | 5.2 | 0.02 | 0.34 | 0.31 | 39 | 1007.7 |
| 20260504220043 | 75 | 198 | 1.7 | 5.2 | 0.02 | 0.34 | 0.31 | 38 | 1007.6 |
| 20260504215843 | 75 | 257 | 1.7 | 5.2 | 0.02 | 0.35 | 0.31 | 38 | 1007.7 |
| 20260504215335 | 76 | 80 | 2.6 | 5.2 | 0.03 | 0.35 | 0.31 | 38 | 1007.6 |
| 20260504214909 | 76 | 86 | 1.7 | 7.0 | 0.03 | 0.35 | 0.31 | 38 | 1007.7 |
| 20260504214542 | 75 | 161 | 1.7 | 7.0 | 0.02 | 0.34 | 0.30 | 38 | 1007.6 |
| 20260504214342 | 76 | 144 | 2.6 | 7.0 | 0.02 | 0.34 | 0.30 | 38 | 1007.7 |
| 20260504213853 | 75 | 62 | 0.9 | 7.0 | 0.02 | 0.33 | 0.29 | 38 | 1007.7 |
| 20260504213346 | 76 | 360 | 1.7 | 7.8 | 0.02 | 0.33 | 0.29 | 37 | 1007.6 |
| 20260504213044 | 75 | 183 | 0.9 | 7.8 | 0.02 | 0.33 | 0.28 | 37 | 1007.5 |
| 20260504212839 | 76 | 63 | 2.6 | 7.8 | 0.02 | 0.33 | 0.29 | 37 | 1007.6 |
| 20260504212352 | 76 | 175 | 1.7 | 7.8 | 0.02 | 0.33 | 0.29 | 37 | 1007.5 |
| 20260504211905 | 76 | 161 | 2.6 | 6.1 | 0.02 | 0.33 | 0.29 | 36 | 1007.5 |
| 20260504211515 | 76 | 261 | 0.9 | 6.1 | 0.04 | 0.33 | 0.28 | 35 | 1007.4 |
| 20260504211414 | 76 | 220 | 0.9 | 7.8 | 0.04 | 0.33 | 0.29 | 36 | 1007.5 |
| 20260504210846 | 77 | 49 | 1.7 | 7.8 | 0.04 | 0.33 | 0.29 | 35 | 1007.5 |
| 20260504210400 | 78 | 123 | 2.6 | 7.8 | 0.04 | 0.33 | 0.29 | 34 | 1007.4 |
| 20260504210052 | 77 | 178 | 0.9 | 7.8 | 0.04 | 0.33 | 0.28 | 34 | 1007.4 |
| 20260504205848 | 78 | 49 | 0.9 | 7.8 | 0.05 | 0.37 | 0.29 | 35 | 1007.5 |
| 20260504205341 | 78 | 226 | 0.9 | 6.1 | 0.04 | 0.36 | 0.28 | 35 | 1007.4 |
| 20260504204835 | 77 | 174 | 2.6 | 7.0 | 0.04 | 0.36 | 0.28 | 35 | 1007.4 |
| 20260504204549 | 76 | 97 | 0.9 | 7.8 | 0.04 | 0.36 | 0.28 | 36 | 1007.3 |
| 20260504204449 | 76 | 263 | 1.7 | 7.8 | 0.04 | 0.36 | 0.28 | 35 | 1007.4 |
| 20260504203935 | 78 | 22 | 0.9 | 2.6 | 0.03 | 0.35 | 0.27 | 34 | 1007.4 |
| 20260504203343 | 76 | 36 | 0.9 | 5.2 | 0.03 | 0.35 | 0.27 | 35 | 1007.6 |
| 20260504203037 | 75 | 337 | 0.9 | 7.0 | 0.03 | 0.35 | 0.27 | 35 | 1007.6 |
| 20260504202837 | 76 | 75 | 1.7 | 7.0 | 0.03 | 0.35 | 0.27 | 35 | 1007.7 |
| 20260504202349 | 75 | 159 | 3.5 | 7.8 | 0.03 | 0.35 | 0.27 | 35 | 1007.7 |
| 20260504201843 | 75 | 207 | 1.7 | 7.8 | 0.03 | 0.35 | 0.27 | 35 | 1007.9 |
| 20260504201559 | 75 | 207 | 1.7 | 7.8 | 0.01 | 0.33 | 0.25 | 34 | 1007.7 |
| 20260504201354 | 76 | 159 | 1.7 | 7.8 | 0.01 | 0.33 | 0.25 | 34 | 1007.8 |
| 20260504200847 | 76 | 126 | 2.6 | 7.8 | 0.01 | 0.33 | 0.25 | 34 | 1007.8 |
| 20260504200342 | 76 | 157 | 0.9 | 8.7 | 0.01 | 0.33 | 0.25 | 35 | 1007.9 |
| 20260504200052 | 75 | 153 | 3.5 | 8.7 | 0.01 | 0.33 | 0.25 | 34 | 1007.9 |
| 20260504195850 | 76 | 186 | 1.7 | 4.3 | 0.00 | 0.34 | 0.24 | 35 | 1008.0 |
| 20260504195424 | 76 | 84 | 0.9 | 4.3 | 0.00 | 0.34 | 0.24 | 35 | 1008.0 |
| 20260504194910 | 77 | 86 | 0.9 | 7.0 | 0.00 | 0.34 | 0.24 | 35 | 1008.1 |
| 20260504194543 | 76 | 82 | 0.0 | 7.0 | 0.00 | 0.34 | 0.24 | 34 | 1008.1 |
| 20260504194341 | 76 | 70 | 0.9 | 7.0 | 0.00 | 0.34 | 0.24 | 34 | 1008.2 |
| 20260504193914 | 76 | 115 | 0.9 | 7.0 | 0.00 | 0.34 | 0.24 | 35 | 1008.3 |
| 20260504193405 | 76 | 217 | 1.7 | 7.0 | 0.00 | 0.34 | 0.24 | 34 | 1008.4 |
| 20260504193038 | 76 | 159 | 1.7 | 7.0 | 0.01 | 0.34 | 0.24 | 33 | 1008.4 |
| 20260504192837 | 77 | 69 | 1.7 | 7.8 | 0.01 | 0.34 | 0.24 | 34 | 1008.4 |
| 20260504192349 | 77 | 62 | 1.7 | 7.0 | 0.01 | 0.34 | 0.24 | 34 | 1008.5 |
| 20260504191843 | 77 | 5 | 1.7 | 7.0 | 0.01 | 0.34 | 0.24 | 35 | 1008.6 |
| 20260504191606 | 76 | 340 | 1.7 | 7.0 | 0.01 | 0.34 | 0.24 | 33 | 1008.7 |
| 20260504191355 | 77 | 153 | 3.5 | 7.0 | 0.01 | 0.34 | 0.24 | 34 | 1008.6 |
| 20260504190849 | 75 | 134 | 0.9 | 7.8 | 0.01 | 0.34 | 0.24 | 36 | 1008.8 |
| 20260504190403 | 74 | 120 | 3.5 | 7.0 | 0.01 | 0.34 | 0.24 | 35 | 1008.9 |
| 20260504190100 | 74 | 155 | 1.7 | 7.0 | 0.01 | 0.34 | 0.24 | 35 | 1009.0 |
| 20260504185852 | 75 | 75 | 1.7 | 7.8 | 0.01 | 0.34 | 0.24 | 34 | 1009.0 |
| 20260504185406 | 75 | 129 | 0.9 | 7.8 | 0.02 | 0.34 | 0.24 | 34 | 1009.0 |
| 20260504184836 | 75 | 74 | 1.7 | 4.3 | 0.02 | 0.34 | 0.24 | 35 | 1009.1 |
| 20260504184550 | 75 | 145 | 0.9 | 4.3 | 0.02 | 0.34 | 0.24 | 34 | 1009.2 |
| 20260504184349 | 75 | 163 | 1.7 | 4.3 | 0.02 | 0.34 | 0.24 | 34 | 1009.2 |
| 20260504183841 | 75 | 89 | 0.0 | 7.0 | 0.02 | 0.34 | 0.24 | 34 | 1009.1 |
| 20260504183353 | 76 | 156 | 4.3 | 7.8 | 0.04 | 0.34 | 0.24 | 32 | 1009.2 |
| 20260504183047 | 77 | 221 | 1.7 | 9.6 | 0.03 | 0.33 | 0.23 | 31 | 1009.2 |
| 20260504182846 | 78 | 140 | 4.3 | 9.6 | 0.03 | 0.33 | 0.23 | 31 | 1009.2 |
| 20260504182344 | 78 | 98 | 3.5 | 9.6 | 0.03 | 0.33 | 0.23 | 32 | 1009.3 |
| 20260504181837 | 77 | 135 | 1.7 | 7.0 | 0.07 | 0.33 | 0.23 | 33 | 1009.2 |
| 20260504181555 | 77 | 149 | 2.6 | 7.0 | 0.07 | 0.33 | 0.23 | 32 | 1009.3 |
| 20260504181350 | 78 | 201 | 3.5 | 7.8 | 0.07 | 0.33 | 0.23 | 32 | 1009.2 |
| 20260504180842 | 77 | 154 | 1.7 | 7.8 | 0.07 | 0.33 | 0.23 | 33 | 1009.4 |
| 20260504180355 | 77 | 309 | 4.3 | 7.8 | 0.09 | 0.33 | 0.23 | 32 | 1009.4 |
| 20260504180045 | 75 | 80 | 2.6 | 7.0 | 0.10 | 0.33 | 0.23 | 33 | 1009.5 |
| 20260504175844 | 76 | 355 | 3.5 | 7.0 | 0.14 | 0.33 | 0.23 | 33 | 1009.5 |
| 20260504175417 | 75 | 139 | 2.6 | 6.1 | 0.13 | 0.32 | 0.22 | 33 | 1009.6 |
| 20260504174846 | 76 | 134 | 1.7 | 7.0 | 0.14 | 0.32 | 0.22 | 33 | 1009.6 |
| 20260504174539 | 76 | 190 | 2.6 | 7.0 | 0.14 | 0.32 | 0.22 | 33 | 1009.8 |
| 20260504174339 | 76 | 331 | 1.7 | 12.2 | 0.14 | 0.32 | 0.22 | 34 | 1009.6 |